Date,TemperatureHighF,TemperatureAvgF,TemperatureLowF,DewpointHighF,DewpointAvgF,DewpointLowF,HumidityHigh,HumidityAvg,HumidityLow,PressureMaxIn,PressureMinIn,WindSpeedMaxMPH,WindSpeedAvgMPH,GustSpeedMaxMPH,PrecipitationSumIn
2013-1-1,23.4,21.4,19.9,21.4,20.1,17.8,97,94,90,30.60,30.49,0,0,0,0.00
2013-1-2,22.6,20.3,19.0,19.9,18.2,16.6,94,91,87,30.59,30.47,0,0,0,0.00
2013-1-3,23.2,20.4,18.3,19.4,17.6,15.9,93,88,81,30.47,30.34,0,0,0,0.00
2013-1-4,32.0,24.1,19.4,29.2,21.9,17.7,98,91,80,30.41,30.34,0,0,0,0.00
2013-1-5,24.4,22.9,21.4,23.8,21.8,20.3,98,95,94,30.38,30.25,0,0,0,0.00
2013-1-6,33.3,29.0,22.3,33.0,28.7,21.6,99,99,97,30.27,30.14,0,0,0,0.00
2013-1-7,38.8,35.1,32.4,38.6,34.8,31.8,99,99,95,30.19,30.03,11,2,11,0.08
2013-1-8,38.1,34.1,31.8,37.9,33.9,31.6,99,99,99,30.25,30.02,3,0,3,0.30
2013-1-9,36.7,32.4,26.8,36.4,32.1,26.1,99,99,97,30.02,29.80,8,1,8,0.01
2013-1-10,31.6,25.0,19.2,28.8,24.1,18.3,99,96,88,30.07,29.96,2,0,2,0.00
2013-1-11,30.6,20.3,15.1,25.2,18.3,13.3,98,92,70,30.31,30.07,0,0,0,0.00
2013-1-12,25.2,18.3,12.4,22.9,16.4,10.6,96,92,85,30.39,30.27,0,0,0,0.00
2013-1-13,23.9,16.2,11.3,22.5,14.6,9.2,96,93,91,30.45,30.36,0,0,0,0.00
2013-1-14,32.2,22.9,13.5,28.6,20.8,11.4,97,92,84,30.50,30.34,0,0,0,0.00
2013-1-15,30.7,24.5,20.5,30.5,24.1,19.8,99,98,97,30.62,30.49,0,0,0,0.00
2013-1-16,33.4,26.1,22.8,32.7,25.7,22.4,99,98,94,30.60,30.55,0,0,0,0.00
2013-1-17,25.2,23.1,21.0,24.9,22.9,20.6,99,99,98,30.58,30.43,0,0,0,0.00
2013-1-18,37.2,28.8,17.4,37.0,27.9,16.5,99,97,88,30.41,30.34,4,0,4,0.01
2013-1-19,28.4,22.4,16.0,26.7,21.2,14.6,98,95,89,30.49,30.37,2,0,2,0.00
2013-1-20,25.5,20.8,14.9,24.9,20.2,13.5,99,97,94,30.55,30.45,0,0,0,0.00
2013-1-21,22.6,19.7,16.5,22.0,18.9,15.4,98,97,95,30.45,30.33,0,0,0,0.00
2013-1-22,21.6,19.0,17.2,20.9,18.1,16.1,97,96,95,30.36,30.19,0,0,0,0.00
2013-1-23,28.6,21.6,18.7,28.3,20.9,17.8,99,97,96,30.22,30.03,0,0,0,0.00
2013-1-24,36.0,29.9,22.6,35.7,29.6,22.4,99,99,99,30.29,30.21,2,0,2,0.02
2013-1-25,37.9,34.3,31.3,37.5,34.1,31.0,99,99,99,30.22,30.03,2,0,2,0.08
2013-1-26,37.0,31.7,28.0,36.8,31.5,27.8,99,99,99,30.10,30.01,4,0,4,0.00
2013-1-27,35.6,31.6,27.9,34.8,30.8,27.5,99,97,86,30.14,30.07,5,0,5,0.00
2013-1-28,35.4,32.4,29.8,34.3,32.0,29.6,99,99,94,30.11,30.04,4,1,4,0.00
2013-1-29,39.7,35.3,32.4,36.4,34.3,31.6,99,96,86,30.38,30.07,7,2,7,0.00
2013-1-30,40.8,36.4,32.7,40.6,36.1,32.5,99,99,96,30.44,30.37,5,1,5,0.00
2013-1-31,41.9,35.3,31.1,40.8,34.8,30.9,99,98,92,30.43,30.35,4,1,4,0.00
2013-2-1,40.8,32.4,27.5,38.6,31.7,26.9,99,97,87,30.50,30.37,7,1,7,0.00
2013-2-2,41.9,30.6,26.1,39.5,30.1,25.7,99,98,90,30.51,30.35,5,1,5,0.00
2013-2-3,39.0,30.5,27.9,38.2,30.3,27.6,99,99,91,30.35,30.26,4,0,4,0.00
2013-2-4,44.4,39.5,36.9,39.3,35.2,34.0,90,85,74,30.18,30.12,2,0,2,0.00
2013-2-5,44.4,39.0,33.8,40.1,37.4,33.6,99,94,74,30.16,30.00,4,1,4,0.02
2013-2-6,41.0,38.2,33.1,39.7,37.1,32.8,99,96,89,30.17,30.08,4,0,4,0.05
2013-2-7,35.6,29.2,25.5,32.7,27.4,23.3,99,93,89,30.13,30.04,2,0,2,0.01
2013-2-8,37.0,35.1,28.6,30.9,29.2,26.6,92,79,75,30.24,30.20,2,1,2,0.00
2013-2-9,40.5,36.8,32.2,35.2,33.2,30.7,96,87,81,30.23,30.19,3,1,3,0.00
2013-2-10,40.5,32.3,25.3,34.9,29.7,25.1,99,91,68,30.35,30.29,4,0,4,0.00
2013-2-11,39.9,29.8,24.8,35.5,29.0,24.6,99,97,84,30.37,30.26,4,1,4,0.00
2013-2-12,44.6,36.5,29.5,41.1,34.9,28.9,99,94,80,30.44,30.37,7,1,7,0.00
2013-2-13,46.6,43.7,30.2,40.6,36.7,29.5,99,77,66,30.50,30.40,5,2,5,0.00
2013-2-14,43.7,34.9,28.2,39.3,33.3,27.7,99,94,81,30.57,30.49,4,1,4,0.00
2013-2-15,49.8,33.2,28.8,41.2,32.2,28.5,99,96,70,30.58,30.34,8,1,8,0.00
2013-2-16,46.0,35.1,28.9,41.3,33.0,27.3,99,92,72,30.34,30.17,8,2,8,0.00
2013-2-17,36.7,28.0,25.5,27.9,25.3,23.3,97,90,69,30.25,30.14,3,1,3,0.00
2013-2-18,38.1,31.0,25.0,29.6,26.3,23.0,95,83,65,30.15,29.86,5,0,5,0.00
2013-2-19,40.6,30.7,23.9,30.1,25.8,21.9,94,83,60,30.03,29.81,8,1,8,0.00
2013-2-20,39.9,30.9,22.8,31.8,26.9,21.9,98,86,65,30.11,29.91,5,1,5,0.00
2013-2-21,38.1,33.5,30.2,33.0,31.8,29.5,99,94,78,30.17,30.11,8,2,8,0.00
2013-2-22,36.9,33.3,28.4,36.6,33.0,27.8,99,99,98,30.17,29.90,7,1,7,0.22
2013-2-23,39.2,30.5,27.5,34.1,29.1,24.4,99,95,80,30.39,30.01,8,1,8,0.01
2013-2-24,34.0,28.6,25.0,31.9,26.5,22.9,96,91,86,30.40,30.13,2,0,2,0.00
2013-2-25,35.1,31.6,27.7,32.6,30.1,25.3,99,94,84,30.31,30.04,4,1,4,0.07
2013-2-26,40.1,30.3,24.8,31.5,26.7,23.3,96,87,64,30.39,30.30,4,0,4,0.01
2013-2-27,47.3,38.2,32.2,37.8,34.4,29.4,99,87,67,30.37,30.30,4,1,4,0.00
2013-2-28,45.0,41.3,36.1,44.7,41.0,35.9,99,99,99,30.48,30.31,4,1,4,0.14
2013-3-1,50.0,44.9,38.7,49.7,44.6,38.4,99,99,97,30.51,30.40,5,2,5,0.05
2013-3-2,50.2,42.5,35.8,48.5,41.4,35.5,99,96,87,30.40,30.16,6,1,6,0.01
2013-3-3,44.1,32.8,24.8,35.2,26.1,18.0,99,78,52,30.30,30.18,6,1,6,0.00
2013-3-4,44.2,31.4,22.5,24.4,18.1,8.7,84,62,25,30.31,27.25,12,2,12,0.00
2013-3-5,37.2,32.1,26.2,32.4,26.9,18.8,97,81,67,30.08,27.17,9,0,9,0.01
2013-3-6,32.9,32.3,31.3,32.7,32.0,30.5,99,99,97,30.02,29.72,3,0,3,0.05
2013-3-7,41.7,32.6,26.4,41.2,32.1,26.2,99,98,88,30.14,30.02,4,0,4,0.38
2013-3-8,51.1,30.7,25.0,37.7,28.7,24.4,99,93,55,30.26,30.11,9,1,9,0.04
2013-3-9,40.8,28.6,25.2,36.0,28.0,24.9,99,98,81,30.42,30.26,2,1,2,0.00
2013-3-10,47.5,35.6,32.9,40.3,33.5,31.8,96,92,76,30.44,30.41,3,0,3,0.00
2013-3-11,51.6,41.9,31.8,42.7,38.3,31.1,99,88,57,30.45,30.32,4,1,4,0.00
2013-3-12,56.8,45.0,38.7,47.8,42.3,36.3,99,91,66,30.32,30.22,8,1,8,0.00
2013-3-13,56.3,41.4,37.8,48.8,40.0,36.6,99,95,76,30.30,30.22,2,0,2,0.00
2013-3-14,58.8,44.2,41.0,44.2,40.8,33.3,99,90,48,30.24,30.16,7,2,7,0.00
2013-3-15,54.7,47.0,37.6,45.6,41.2,35.5,97,81,64,30.32,30.22,5,1,5,0.00
2013-3-16,46.6,39.3,31.1,42.5,36.4,28.2,99,89,73,30.23,29.97,9,2,9,0.00
2013-3-17,44.1,33.2,26.2,30.1,27.5,22.8,96,80,53,30.23,30.04,9,2,9,0.00
2013-3-18,49.5,35.2,25.7,32.9,28.2,21.3,92,77,45,30.27,30.19,8,2,8,0.00
2013-3-19,40.5,29.9,25.2,29.1,23.5,20.6,83,77,61,30.26,30.22,9,1,9,0.00
2013-3-20,44.1,37.0,29.8,42.5,36.2,29.1,99,97,78,30.07,29.71,11,2,11,0.26
2013-3-21,41.4,32.8,27.3,33.0,28.6,24.8,98,85,64,30.23,30.07,8,2,8,0.00
2013-3-22,41.0,30.2,22.5,27.4,22.8,18.5,93,75,50,30.37,30.22,8,1,8,0.00
2013-3-23,42.6,30.4,23.2,24.8,21.8,18.5,87,72,47,30.40,30.32,8,1,8,0.00
2013-3-24,41.5,33.5,31.1,26.0,24.7,23.1,76,70,50,30.26,30.23,2,0,2,0.00
2013-3-25,52.5,41.1,27.9,32.1,28.2,21.3,82,62,42,30.24,30.07,11,2,11,0.00
2013-3-26,41.2,36.7,34.0,37.4,32.0,29.3,88,83,75,30.10,30.07,2,0,2,0.00
2013-3-27,57.0,45.8,38.1,43.9,39.6,36.1,99,81,50,30.11,30.04,10,1,10,0.01
2013-3-28,43.2,40.4,36.0,42.9,40.1,35.5,99,99,99,30.15,30.10,3,0,3,0.00
2013-3-31,68.4,55.1,41.0,46.3,42.5,39.3,94,65,42,30.18,30.07,9,2,9,0.00
2013-4-1,67.5,49.2,36.1,52.3,43.6,35.7,99,83,56,30.20,30.07,7,2,7,0.00
2013-4-2,62.8,48.4,37.2,49.1,42.4,36.5,99,81,55,30.26,30.19,6,2,6,0.00
2013-4-3,61.7,44.7,34.7,44.9,39.1,33.7,98,83,44,30.25,30.09,6,1,6,0.00
2013-4-4,56.1,48.0,44.2,52.4,46.2,41.8,99,94,62,30.10,29.88,7,1,8,0.07
2013-4-5,54.5,45.8,41.5,49.7,44.2,41.3,99,95,75,30.06,29.97,7,2,8,0.08
2013-4-6,47.3,41.6,37.2,45.6,40.6,36.6,99,96,85,30.08,29.92,11,2,11,0.17
2013-4-7,46.2,40.8,37.6,42.3,39.3,36.3,99,94,77,29.91,29.69,10,3,10,0.31
2013-4-8,51.4,42.6,30.4,41.3,37.4,30.1,99,83,63,30.32,30.08,5,2,5,0.00
2013-4-9,57.4,42.0,28.4,41.3,35.2,28.2,99,79,46,30.41,30.32,7,1,7,0.00
2013-4-10,56.3,45.7,36.1,50.3,40.0,32.7,99,81,62,30.32,30.10,10,3,10,0.04
2013-4-11,56.3,40.0,27.5,38.7,32.8,26.8,99,78,47,30.30,30.21,8,2,8,0.00
2013-4-12,50.7,43.6,35.8,37.0,35.1,31.2,97,73,52,30.14,29.83,11,3,11,0.00
2013-4-13,50.0,39.1,31.3,36.5,28.7,23.3,87,67,48,30.05,29.83,10,5,10,0.00
2013-4-14,54.7,41.0,28.2,33.1,29.2,25.5,93,66,35,30.06,29.95,9,2,9,0.01
2013-4-15,42.4,34.3,26.8,37.8,31.6,25.6,98,90,71,30.21,29.97,10,1,10,0.15
2013-4-16,46.6,35.4,27.3,30.5,26.3,21.0,99,72,40,30.44,30.20,8,1,8,0.01
2013-4-17,56.7,39.2,26.2,34.4,27.2,19.6,82,64,36,30.50,30.43,10,2,10,0.00
2013-4-18,57.6,43.0,30.6,42.6,36.3,27.3,98,78,55,30.46,30.35,7,2,7,0.00
2013-4-19,55.9,46.5,41.5,45.3,42.4,38.5,99,86,64,30.35,30.16,14,3,14,0.02
2013-4-20,57.9,45.8,40.1,41.6,38.6,35.6,95,77,52,30.32,30.25,8,3,8,0.00
2013-4-21,52.0,42.5,37.0,39.2,36.2,33.3,90,79,60,30.30,30.24,10,2,10,0.00
2013-4-22,56.3,46.3,29.5,29.9,24.4,19.5,73,45,28,30.54,30.34,11,2,11,0.24
2013-4-23,59.4,41.0,26.2,33.3,25.7,20.0,80,58,25,30.49,30.29,8,2,8,0.00
2013-4-24,61.2,41.0,30.2,38.9,28.6,25.2,86,66,28,30.40,30.12,11,2,11,0.00
2013-4-25,74.8,53.0,36.5,46.2,39.1,30.0,82,63,34,30.23,30.10,7,1,7,0.00
2013-4-26,79.0,53.1,37.9,45.7,39.0,35.8,97,65,25,30.33,30.23,11,1,11,0.00
2013-4-27,72.9,51.7,41.0,44.8,37.6,35.0,86,62,26,30.33,30.24,10,2,10,0.00
2013-4-28,62.4,49.1,39.2,44.5,38.7,34.3,96,70,43,30.28,30.09,8,2,8,0.00
2013-4-29,57.2,45.3,30.6,40.9,31.9,22.8,88,61,34,30.16,30.01,14,4,14,0.00
2013-4-30,48.0,32.3,25.0,28.3,23.0,19.5,82,70,39,30.28,30.16,5,1,5,0.00
2013-5-1,59.0,44.7,36.0,39.3,28.3,25.6,97,55,30,30.64,29.86,8,2,8,0.24
2013-5-2,73.2,50.8,32.5,41.2,31.3,24.4,77,52,20,30.63,30.35,10,2,10,0.00
2013-5-3,76.5,55.7,38.1,44.3,39.0,32.2,81,57,31,30.41,30.30,10,2,10,0.00
2013-5-4,73.0,60.1,43.2,41.1,35.7,29.2,73,43,24,30.32,30.13,20,4,20,0.00
2013-5-5,75.9,60.1,41.0,42.8,37.1,31.2,74,45,27,30.13,29.97,17,3,17,0.00
2013-5-6,86.0,62.8,45.5,52.9,44.4,37.7,84,55,27,30.03,29.93,9,2,9,0.00
2013-5-7,83.3,61.8,46.0,55.1,48.9,40.5,92,66,35,30.08,29.97,5,1,5,0.00
2013-5-8,86.0,68.1,50.5,57.3,53.2,47.5,92,62,32,30.20,30.08,7,1,7,0.00
2013-5-9,88.5,63.6,46.8,59.8,51.6,46.2,99,71,27,30.26,30.18,5,1,5,0.00
2013-5-10,88.7,66.0,46.9,60.0,51.5,46.0,98,66,27,30.31,30.22,7,1,7,0.00
2013-5-11,88.0,68.1,54.7,59.5,55.0,50.5,94,67,34,30.32,30.16,6,1,6,0.00
2013-5-12,72.1,62.8,53.6,60.4,52.3,45.8,92,70,45,30.23,30.17,7,2,7,0.00
2013-5-13,65.1,53.7,41.9,55.2,47.5,36.5,93,80,60,30.28,30.15,8,2,8,0.01
2013-5-14,67.5,49.8,36.9,39.0,35.2,27.6,87,61,30,30.30,30.19,5,1,5,0.00
2013-5-15,55.6,47.8,39.4,48.4,42.0,35.3,98,81,57,30.21,30.11,6,1,6,0.01
2013-5-16,70.0,52.4,36.5,49.7,43.9,36.2,99,76,40,30.14,30.00,8,2,8,0.00
2013-5-17,62.8,50.3,42.3,48.9,44.1,38.8,99,81,50,30.15,30.05,6,2,6,0.05
2013-5-18,59.5,47.5,37.9,45.2,41.0,36.6,99,79,56,30.32,30.15,7,2,7,0.00
2013-5-19,69.3,51.5,36.3,48.5,42.1,35.8,99,74,42,30.40,30.32,8,1,8,0.00
2013-5-20,76.3,54.1,36.7,49.0,41.5,36.0,99,68,31,30.39,30.01,12,1,12,0.00
2013-5-21,62.6,47.9,35.4,46.1,40.8,34.6,99,78,47,30.00,29.85,8,2,8,0.09
2013-5-22,40.3,36.6,33.4,40.0,36.3,33.2,99,99,99,30.07,29.97,3,1,3,0.38
2013-5-23,54.1,43.2,37.0,48.9,41.7,36.8,99,95,78,30.12,30.06,4,1,4,0.07
2013-5-24,59.4,45.4,37.0,48.7,42.1,35.9,99,89,62,30.17,30.08,11,1,11,0.13
2013-5-25,63.5,48.4,35.8,47.2,41.7,35.5,99,80,49,30.15,30.08,5,1,5,0.00
2013-5-26,61.9,49.7,43.2,56.8,47.5,42.6,99,93,65,30.14,30.06,5,1,5,0.27
2013-5-27,51.6,46.3,41.7,51.4,46.1,41.2,99,99,98,30.12,29.94,6,1,6,0.27
2013-5-28,62.2,49.7,42.1,52.0,45.6,41.1,99,87,60,30.03,29.91,7,2,7,0.01
2013-5-29,56.7,48.0,41.4,53.3,46.5,40.5,99,95,80,30.10,29.81,8,2,8,0.27
2013-5-30,63.9,48.3,36.7,48.4,42.3,36.4,99,82,51,30.31,30.09,6,2,6,0.00
2013-5-31,69.6,51.0,36.5,48.8,42.8,36.0,99,77,43,30.40,30.31,8,1,8,0.00
2013-6-1,74.1,52.3,39.7,54.2,45.5,39.0,99,80,50,30.34,30.14,5,1,5,0.00
2013-6-2,73.6,55.9,43.3,50.7,45.9,41.4,97,72,40,30.16,30.08,7,1,7,0.01
2013-6-3,77.4,55.9,38.7,53.4,45.9,38.3,99,73,37,30.19,30.12,7,1,7,0.00
2013-6-4,80.1,59.4,44.2,54.9,49.1,43.6,99,73,38,30.26,30.17,12,2,12,0.00
2013-6-5,84.6,65.8,49.3,60.1,53.8,47.9,98,70,38,30.21,30.11,8,2,8,0.00
2013-6-6,86.5,66.6,50.7,62.8,56.1,50.5,99,73,40,30.16,30.08,11,1,11,0.00
2013-6-7,81.3,63.9,51.3,59.6,52.4,46.9,95,69,41,30.20,30.12,10,2,10,0.00
2013-6-8,83.3,61.7,43.3,54.9,47.8,41.2,94,64,33,30.22,30.14,7,1,7,0.00
2013-6-9,72.1,51.5,43.0,50.9,44.5,40.5,98,79,36,30.14,30.04,3,1,3,0.00
2013-6-10,78.1,56.3,38.8,52.7,43.6,37.0,96,66,34,30.07,29.94,8,2,8,0.00
2013-6-11,63.5,51.4,41.5,43.6,40.4,36.8,93,68,45,30.21,30.00,9,3,9,0.00
2013-6-12,69.3,50.6,34.7,46.3,40.0,33.6,99,70,40,30.23,30.18,6,2,6,0.00
2013-6-13,64.9,50.5,38.3,47.3,42.3,36.6,99,75,49,30.32,30.21,8,2,8,0.00
2013-6-14,72.9,53.2,39.7,50.2,43.9,39.0,99,75,42,30.32,30.19,8,1,8,0.00
2013-6-15,82.8,71.0,54.3,56.8,48.7,38.6,88,49,26,30.14,30.06,11,2,11,0.00
2013-6-16,83.8,66.8,54.0,57.5,55.0,50.5,98,70,34,30.21,30.11,7,1,7,0.02
2013-6-17,81.0,62.4,50.9,56.2,51.1,46.3,97,70,37,30.21,30.06,7,1,7,0.00
2013-6-18,71.6,57.5,48.9,48.9,44.9,38.4,91,65,37,30.11,30.01,7,2,7,0.00
2013-6-19,64.6,53.1,43.3,46.6,43.3,39.5,90,71,47,30.14,30.00,9,2,9,0.00
2013-6-20,60.1,51.1,42.6,47.9,45.0,40.1,99,81,58,30.22,30.10,6,2,6,0.09
2013-6-21,62.8,52.9,44.8,59.1,51.1,-18.3,99,94,68,30.25,30.19,4,1,4,0.14
2013-6-22,76.5,59.1,44.8,55.1,50.1,-18.3,99,76,39,30.24,30.05,11,1,11,0.00
2013-6-23,67.3,58.8,52.9,60.5,55.3,46.4,99,89,48,30.05,29.84,6,0,6,0.14
2013-6-24,64.9,56.0,51.8,55.3,52.9,49.8,99,90,62,29.90,29.81,5,1,5,0.06
2013-6-25,61.2,53.6,49.5,60.2,53.2,49.2,99,98,92,30.06,29.88,5,0,5,0.59
2013-6-26,67.8,56.8,49.3,61.8,54.8,49.0,99,94,75,30.25,30.05,4,1,4,0.01
2013-6-27,80.4,64.4,0.0,65.0,58.0,50.3,99,81,54,30.32,30.22,7,1,7,0.00
2013-6-28,90.3,72.5,0.0,68.3,64.2,55.5,99,69,45,30.35,29.87,8,1,8,2.12
2013-6-29,84.4,68.3,60.4,72.2,64.9,60.2,99,90,65,29.94,29.85,0,0,0,0.00
2013-6-30,88.2,79.9,70.0,69.0,63.7,56.7,96,59,43,29.95,29.84,0,0,0,0.00
2013-7-1,99.9,79.4,63.5,73.0,64.3,33.7,95,64,10,29.93,29.83,0,0,0,0.00
2013-7-2,98.2,77.2,62.6,75.1,66.2,58.0,99,73,35,29.95,29.87,0,0,0,0.00
2013-7-3,92.7,71.4,57.9,63.1,56.4,50.6,89,63,32,29.98,29.86,0,0,0,0.00
2013-7-4,82.4,64.1,51.1,57.7,50.9,46.1,90,64,41,29.90,29.80,0,0,0,0.00
2013-7-5,80.1,61.8,47.3,58.2,50.4,-6.1,98,69,45,29.84,29.77,0,0,0,0.00
2013-7-6,85.1,62.7,44.6,58.2,51.1,43.8,99,70,35,29.83,29.73,0,0,0,0.00
2013-7-7,88.7,68.3,51.1,63.2,54.5,46.1,99,67,30,29.81,29.72,0,0,0,0.00
2013-7-8,87.8,66.2,48.7,58.9,54.7,47.7,99,71,36,29.96,29.79,0,0,0,0.00
2013-7-9,94.3,71.1,53.2,61.3,55.4,50.8,99,64,26,30.00,29.88,0,0,0,0.00
2013-7-10,91.0,71.2,55.4,60.5,54.4,48.0,91,60,28,29.92,29.76,0,0,0,0.00
2013-7-11,84.6,62.7,47.5,50.3,46.3,43.0,88,61,26,29.85,29.79,0,0,0,0.00
2013-7-12,81.3,60.0,48.6,46.9,40.4,37.3,68,50,30,29.93,29.83,0,0,0,0.00
2013-7-13,81.5,59.2,40.1,47.6,40.7,35.4,89,56,23,30.02,29.93,0,0,0,0.00
2013-7-14,92.1,66.3,45.9,52.9,43.2,37.9,80,50,17,30.00,29.83,0,0,0,0.00
2013-7-15,87.1,66.0,46.9,52.7,46.9,41.7,87,55,29,29.90,29.79,0,0,0,0.00
2013-7-16,88.5,68.0,53.2,61.6,48.5,39.8,73,52,27,29.86,29.76,0,0,0,0.00
2013-7-17,90.0,70.1,55.4,57.7,49.5,36.0,86,53,23,30.00,29.82,0,0,0,0.00
2013-7-18,86.7,61.4,48.4,58.7,49.0,38.0,92,67,28,30.04,29.93,0,0,0,0.00
2013-7-19,100.4,70.6,52.0,58.6,52.8,42.8,89,60,20,29.98,29.85,0,0,0,0.00
2013-7-20,96.4,71.7,53.2,62.7,54.5,48.2,94,60,28,29.89,29.77,0,0,0,0.00
2013-7-21,96.6,70.8,49.8,63.9,53.1,43.2,84,57,29,29.80,29.73,0,0,0,0.00
2013-7-22,96.8,72.4,53.6,62.1,54.9,48.6,86,58,30,29.85,29.76,0,0,0,0.00
2013-7-23,97.2,72.3,52.0,62.2,53.5,45.2,97,59,18,29.93,29.82,0,0,0,0.00
2013-7-24,99.3,73.3,50.9,60.5,54.4,47.8,91,57,23,29.91,29.84,0,0,0,0.00
2013-7-25,100.4,69.3,51.4,57.4,51.8,48.0,94,62,19,29.94,29.88,0,0,0,0.00
2013-7-26,100.2,70.0,50.9,56.4,47.9,42.2,80,51,20,29.98,29.90,0,0,0,0.00
2013-7-27,88.5,68.0,50.2,53.4,47.8,42.4,83,52,29,29.97,29.82,0,0,0,0.00
2013-7-28,87.3,64.3,49.1,55.2,49.2,41.7,84,61,31,29.84,29.76,0,0,0,0.00
2013-7-29,65.3,49.1,45.0,53.9,46.3,43.8,99,90,66,29.84,29.80,0,0,0,0.00
2013-8-3,56.7,56.5,56.3,55.0,54.7,54.4,95,94,92,29.88,29.88,0,0,0,0.00
2013-8-4,59.0,56.9,56.1,57.9,56.1,55.3,97,97,96,29.90,29.88,0,0,0,0.00
2013-8-5,82.9,69.9,60.8,61.3,58.1,55.6,95,67,45,29.91,29.81,0,0,0,0.00
2013-8-6,74.7,58.7,53.1,60.2,54.1,50.2,98,86,51,29.89,29.82,0,0,0,0.00
2013-8-7,86.0,69.9,62.1,56.3,54.5,50.6,70,59,31,29.87,29.81,0,0,0,0.00
2013-8-8,91.9,69.3,55.8,63.9,56.2,51.6,86,66,27,29.88,29.78,0,0,0,0.00
2013-8-9,91.0,71.1,57.6,64.1,59.2,54.8,99,71,33,29.92,29.70,0,0,0,0.12
2013-8-10,84.0,67.3,54.3,67.9,61.5,54.1,99,84,55,29.90,29.79,0,0,0,0.00
2013-8-11,75.0,62.7,56.3,64.9,59.3,52.4,99,90,56,29.93,29.87,0,0,0,0.01
2013-8-12,83.5,65.2,58.1,57.3,51.0,49.1,72,62,35,29.94,29.90,0,0,0,0.00
2013-8-13,84.6,71.4,50.7,54.3,49.4,46.0,87,52,30,29.97,29.92,0,0,0,0.00
2013-8-14,89.4,86.3,81.3,56.8,52.8,48.0,35,32,28,29.86,29.82,0,0,0,0.00
2013-8-19,59.4,58.8,57.9,48.5,48.0,47.6,69,67,65,29.80,29.79,0,0,0,0.00
2013-8-20,58.1,55.9,54.5,48.5,47.9,47.3,80,74,69,29.81,29.78,0,0,0,0.00
2013-8-21,56.1,55.6,55.2,48.7,48.4,48.3,78,77,76,29.81,29.80,0,0,0,0.00
2013-8-22,60.6,57.7,55.9,48.8,48.4,47.9,75,71,65,29.82,29.80,0,0,0,0.00
2013-8-23,70.3,65.3,61.9,50.8,49.9,49.1,64,58,48,29.83,29.81,0,0,0,0.00
2013-8-24,77.0,72.5,68.7,52.6,52.0,51.5,55,49,42,29.82,29.76,0,0,0,0.00
2013-8-25,77.4,56.5,51.3,57.7,55.0,49.9,99,96,42,29.87,29.75,0,0,0,0.41
2013-8-26,54.5,51.2,50.0,53.7,50.9,49.2,99,99,99,29.86,29.82,0,0,0,0.00